This is the latest recevied weather packets stored in our database for station/object KM4KMS. If no packets are shown the sender has not sent any weather packets the latest 1 day(s).
| Time | Temp. | Humidity | Pressure | Rain* | Wind** | Luminosity | Snow |
|---|---|---|---|---|---|---|---|
| 1778003132 | 21.11° C | 69% | 1008.5 hPa | 0 mm | 4.02 m/s, 267° | 445 W/m² | - |
| 1778002828 | 21.11° C | 69% | 1008.6 hPa | 0 mm | 3.58 m/s, 175° | 619 W/m² | - |
| 1778002525 | 20.56° C | 71% | 1008.7 hPa | 0 mm | 3.13 m/s, 209° | 398 W/m² | - |
| 1778002222 | 20.56° C | 72% | 1008.8 hPa | 0 mm | 3.58 m/s, 173° | 325 W/m² | - |
| 1778001920 | 20° C | 73% | 1008.7 hPa | 0 mm | 2.24 m/s, 296° | 240 W/m² | - |
| 1778001615 | 20° C | 72% | 1008.9 hPa | 0 mm | 3.13 m/s, 225° | 189 W/m² | - |
| 1778001311 | 20° C | 71% | 1008.8 hPa | 0 mm | 3.13 m/s, 221° | 182 W/m² | - |
| 1778001008 | 20° C | 72% | 1009.2 hPa | 0 mm | 3.58 m/s, 224° | 203 W/m² | - |
| 1778000705 | 20° C | 71% | 1009.2 hPa | 0 mm | 4.92 m/s, 233° | 222 W/m² | - |
| 1778000400 | 20° C | 71% | 1009.2 hPa | 0 mm | 4.02 m/s, 233° | 221 W/m² | - |
| 1778000096 | 20° C | 71% | 1009.1 hPa | 0 mm | 4.47 m/s, 261° | 227 W/m² | - |
| 1777999792 | 20° C | 71% | 1009.4 hPa | 0 mm | 3.13 m/s, 216° | 268 W/m² | - |
| 1777999488 | 20° C | 72% | 1009.4 hPa | 0 mm | 3.13 m/s, 234° | 259 W/m² | - |
| 1777999186 | 20° C | 72% | 1009.6 hPa | 0 mm | 2.68 m/s, 205° | 218 W/m² | - |
| 1777998885 | 20° C | 72% | 1009.3 hPa | 0 mm | 3.58 m/s, 242° | 200 W/m² | - |
| 1777998584 | 19.44° C | 71% | 1009.4 hPa | 0 mm | 4.02 m/s, 226° | 240 W/m² | - |
| 1777998279 | 19.44° C | 72% | 1009.3 hPa | 0 mm | 3.13 m/s, 240° | 261 W/m² | - |
| 1777997976 | 19.44° C | 72% | 1009.5 hPa | 0 mm | 4.02 m/s, 202° | 239 W/m² | - |
| 1777997673 | 19.44° C | 72% | 1009.8 hPa | 0 mm | 3.13 m/s, 219° | 216 W/m² | - |
| 1777997370 | 19.44° C | 72% | 1009.4 hPa | 0 mm | 3.58 m/s, 188° | 203 W/m² | - |
| 1777997069 | 19.44° C | 73% | 1009.6 hPa | 0 mm | 2.68 m/s, 234° | 173 W/m² | - |
| 1777996764 | 18.89° C | 73% | 1009.6 hPa | 0 mm | 4.02 m/s, 253° | 234 W/m² | - |
| 1777996461 | 18.89° C | 73% | 1009.6 hPa | 0 mm | 3.13 m/s, 229° | 221 W/m² | - |
| 1777996158 | 18.89° C | 73% | 1009.8 hPa | 0 mm | 2.68 m/s, 200° | 163 W/m² | - |
| 1777995854 | 18.89° C | 73% | 1009.7 hPa | 0 mm | 2.68 m/s, 234° | 154 W/m² | - |
* Rain latest hour (hover to see other rain measurements)
** Current wind speed in m/s (hover to see current wind gust speed)